Location: Choisy
(48.7685°N, 2.4187°E)
Time: 20:02:05
(UTC+00:00)

ONEWEB-0020 - Visible Passes

Search period start: 12 July 2024 00:00
Search period end: 22 July 2024 00:00
Orbit: 1220 x 1223 km, 87.9° (Epoch: 11 July)

Date Brightness Start Highest point End Pass type
(mag) Time Alt. Az. Time Alt. Az. Time Alt. Az.
12 Jul ? 01:30:00 10° NE 01:31:45 11° ENE 01:33:32 10° ENE visible
12 Jul ? 03:16:29 10° N 03:23:44 53° E 03:30:55 10° SSE visible
13 Jul ? 03:05:56 10° N 03:13:06 49° E 03:20:13 10° SSE visible
14 Jul ? 02:55:23 10° N 03:02:28 45° E 03:09:29 10° SSE visible
15 Jul ? 02:44:51 10° N 02:51:49 42° ENE 02:58:44 10° SSE visible
16 Jul ? 02:34:19 10° N 02:41:10 38° ENE 02:47:58 10° SE visible
17 Jul ? 02:23:47 10° N 02:30:31 36° ENE 02:37:11 10° SE visible
18 Jul ? 02:13:17 10° NNE 02:19:51 33° ENE 02:26:22 10° SE visible
19 Jul ? 02:02:47 10° NNE 02:09:11 30° ENE 02:15:33 10° SE visible
20 Jul ? 01:52:18 10° NNE 01:58:31 28° ENE 02:04:41 10° SE visible
21 Jul ? 01:41:49 10° NNE 01:47:50 26° ENE 01:53:48 10° SE visible
21 Jul ? 03:31:10 10° N 03:38:34 73° W 03:45:56 10° S visible
